Location: downtown San Diego
(32.7310°N, 117.1990°W)
Time: 14:21:37
(UTC-08:00)

Cosmos 1763 Rocket - Pass Details

Date: 12 July 2018
Orbit: 733 x 780 km, 74.0° (Epoch: 12 November)

Event Time Altitude Azimuth Distance (km) Brightness Sun altitude
Rises 22:02:18 0° 352° (N) 3,168 7.6 -21.7°
Reaches altitude 10° 22:04:47 10° 360° (N) 2,246 6.5 -22.0°
Maximum altitude 22:09:33 40° 69° (ENE) 1,084 4.1 -22.7°
Enters shadow 22:09:55 39° 80° (E) 1,095 4.0 -22.8°
